Wind_Speed
32 31 32 33 35 35 35 35 34 32 31 31 30 31 38 36 39 38 37 35 35 34 34 33 33 34 34 36 38 40 40 38 36 34 33 33 28 27 26 23 23 24 24 26 30 31 31
36 36 36 36 37 38 39 38 37 37 37 34 34 33 37 38 38 39 37 36 38 36 35 33 31 31 33 34 36 34 36 35 34 33 32 30 28 27 25 23 23 24 26 27 29 30 36
39 40 40 40 39 40 41 42 43 41 41 40 39 36 36 40 36 40 38 38 37 38 37 34 30 29 30 31 34 34 35 35 33 31 31 30 28 27 26 24 24 25 26 27 27 29 32
43 44 44 47 46 47 47 47 48 49 48 46 44 39 38 39 41 36 41 37 39 39 38 34 31 28 27 28 30 31 31 32 31 30 29 28 26 25 24 25 26 26 27 26 27 29 29
46 47 48 50 53 53 54 57 57 55 55 54 51 46 41 41 45 41 41 41 39 41 39 35 32 29 28 27 26 26 26 28 28 27 26 24 22 22 24 25 26 26 28 29 30 32 31
50 52 54 56 56 57 61 68 72 70 67 57 54 53 48 44 47 46 43 45 40 40 39 37 33 32 30 27 26 25 25 24 24 23 23 22 23 24 25 24 26 29 31 33 34 34 35
53 57 59 62 65 71 74 76 76 74 71 61 52 56 53 49 52 51 50 42 46 38 37 37 37 34 32 30 29 28 26 24 23 22 23 24 24 22 25 27 30 32 34 37 39 40 39
57 58 60 62 68 74 80 78 69 56 51 51 43 58 60 57 55 44 54 48 44 42 38 41 38 36 34 33 30 29 26 24 24 22 23 24 25 26 28 30 33 36 41 45 48 46 50
59 62 63 69 77 84 78 65 58 50 43 43 41 53 63 65 62 46 55 50 43 45 43 39 39 37 36 35 32 30 28 26 26 25 26 27 29 31 35 38 40 43 46 47 49 50 52
63 66 69 78 85 86 67 55 41 32 26 30 35 41 59 64 54 44 53 53 45 43 47 41 38 37 36 35 34 32 31 29 28 28 31 32 35 38 41 44 44 48 48 50 53 56 56
66 69 76 84 90 74 58 39 22 18 26 22 26 35 50 60 64 50 39 32 41 45 45 46 43 36 34 34 31 30 30 30 29 31 33 35 36 39 42 43 48 50 52 54 56 58 59
69 72 80 88 85 63 44 30 25 12 19 27 18 34 41 55 64 52 45 40 42 44 46 43 43 38 35 33 31 30 30 30 30 32 34 36 40 42 43 45 50 53 55 57 59 60 64
70 76 84 91 76 54 31 20 16 14 17 23 21 29 37 50 66 49 48 38 44 46 45 39 35 36 35 33 31 30 30 30 32 34 35 37 37 40 43 48 52 56 58 60 61 63 67
72 80 87 92 70 44 24 13 17 20 25 24 12 19 35 45 62 41 46 41 45 41 42 39 32 32 29 28 28 28 28 28 28 28 31 32 32 33 37 38 37 30 28 32 38 45 52
74 84 90 88 64 39 20 20 19 16 32 23 14 14 36 67 58 43 43 49 44 39 34 38 36 32 25 23 23 24 25 22 23 25 29 29 30 32 28 28 32 33 34 30 37 38 42
76 86 94 83 58 33 20 17 15 14 22 28 9 20 42 72 52 38 50 43 35 31 33 35 38 33 29 26 24 25 22 21 22 24 28 26 27 22 24 31 35 40 40 40 40 42 45
78 88 95 77 50 29 14 14 10 7 15 25 5 31 42 53 34 45 42 37 34 29 28 34 34 33 31 29 29 22 17 20 20 27 24 26 24 26 30 30 36 42 47 45 43 44 46
80 89 93 68 39 26 4 13 2 10 11 8 18 43 52 50 54 40 37 29 23 21 27 33 37 33 32 30 29 16 17 21 24 23 24 24 28 28 29 34 38 38 39 41 43 39 44
81 90 89 56 33 23 4 14 9 11 9 7 32 55 44 35 36 36 34 27 23 24 26 33 35 35 34 31 21 17 20 26 21 23 20 22 26 27 24 22 25 31 28 32 31 36 31
80 89 81 44 29 22 21 15 13 14 8 35 46 32 30 32 38 34 28 23 20 22 29 31 32 32 30 22 19 18 23 23 20 19 19 22 20 22 19 17 18 24 21 17 22 31 23
79 87 73 34 24 18 19 19 11 11 31 45 30 22 26 31 33 34 30 17 13 19 24 27 29 28 23 18 19 20 20 17 15 13 15 16 12 13 13 14 17 22 26 18 8 5 5
76 83 67 27 21 13 9 11 13 21 39 31 17 32 41 26 32 27 23 22 22 23 23 22 23 22 20 18 19 16 13 11 10 11 13 11 9 12 15 15 16 16 15 12 7 6 2
72 77 62 21 24 15 10 18 34 30 24 17 16 23 19 20 29 17 15 18 21 21 17 18 20 20 19 18 14 13 10 9 7 8 5 8 10 12 13 14 18 16 3 4 7 3 4
68 72 61 19 18 8 29 29 30 27 23 17 17 21 22 25 23 21 16 18 18 18 17 14 16 19 17 19 9 9 8 8 6 3 2 5 10 13 16 17 21 18 6 7 10 6 4
64 67 61 20 10 14 32 19 15 15 17 17 19 16 18 23 23 17 23 19 15 15 11 10 12 14 14 15 8 9 11 11 5 3 6 4 7 11 15 18 19 23 20 12 10 12 13
60 64 62 23 6 12 23 25 20 19 19 9 10 14 14 20 22 24 13 15 18 17 14 8 8 10 13 6 7 11 14 11 6 4 4 2 3 7 10 13 17 21 23 22 21 22 17
58 62 62 32 7 12 26 30 18 15 21 12 11 11 13 17 15 17 16 10 17 17 16 7 5 10 14 1 6 12 16 14 10 7 4 1 1 4 7 8 10 12 13 15 15 18 16
58 61 63 45 14 23 26 29 21 20 18 14 5 10 10 12 12 12 11 14 14 14 18 5 7 8 9 4 4 9 18 17 13 12 10 8 6 5 3 6 6 4 4 5 7 8 8
59 61 65 56 15 30 34 30 25 21 16 13 13 10 13 16 9 11 13 17 14 14 15 8 7 6 8 9 8 9 17 20 20 19 17 15 10 7 5 6 5 3 3 3 1 4 6
Wind_Direction
327 322 319 317 314 310 307 303 298 294 291 284 280 284 260 264 250 249 250 246 245 242 241 239 237 234 230 229 229 228 231 229 229 231 231 234 236 241 247 251 257 263 258 257 251 246 244
324 321 318 314 311 308 306 302 297 293 286 282 274 272 268 260 253 247 249 243 240 238 237 235 232 230 228 226 226 223 227 230 228 227 231 234 236 240 245 249 255 261 262 257 253 251 250
320 318 316 313 309 307 304 298 294 288 284 278 276 268 266 256 260 244 246 242 237 236 234 234 230 226 224 222 223 220 223 227 225 226 229 231 233 238 244 250 255 262 262 262 261 254 255
321 318 315 311 309 307 304 299 293 289 282 275 268 266 260 254 250 248 242 242 236 234 233 232 230 225 222 219 221 220 219 225 226 225 227 230 234 242 250 255 257 261 264 268 267 262 260
319 319 316 314 313 311 307 304 297 292 286 274 266 256 252 247 243 242 243 236 237 232 231 230 229 228 223 220 219 219 218 221 225 226 227 230 236 242 251 259 262 266 268 266 267 269 266
317 319 320 319 317 311 309 309 304 296 290 275 260 253 244 239 240 237 240 234 233 231 229 230 229 227 225 225 221 221 219 220 223 226 231 234 240 248 256 262 265 265 267 271 275 273 273
322 325 325 323 320 318 315 310 302 294 286 274 249 236 231 229 229 237 236 235 229 230 229 231 229 228 228 229 227 225 225 225 227 231 237 243 246 252 256 262 265 268 269 272 274 277 271
328 329 327 322 320 319 316 311 302 291 276 270 246 226 220 217 219 228 232 231 226 226 228 226 227 227 230 232 232 232 233 234 239 241 244 250 256 260 263 267 270 274 277 276 273 271 270
331 330 328 325 324 321 321 314 308 298 281 263 251 224 219 212 213 207 227 229 224 224 226 228 226 228 229 233 235 237 239 241 246 253 257 261 266 269 271 272 272 273 274 272 273 271 272
332 331 330 328 327 328 324 322 321 314 296 260 239 222 220 212 199 206 226 227 225 223 225 224 225 225 228 232 236 240 245 248 252 258 264 268 271 271 273 275 275 273 275 274 272 270 270
333 334 332 331 332 331 328 327 342 17 15 339 240 223 218 210 189 185 197 220 235 225 224 222 224 223 226 230 233 241 246 251 258 263 268 272 271 272 273 276 275 276 275 274 273 272 268
336 335 333 334 335 329 330 315 321 342 4 342 306 225 214 206 184 186 190 205 226 228 224 223 222 225 227 232 236 243 250 256 262 267 269 273 275 277 279 279 279 277 276 273 272 271 268
338 336 335 336 335 330 318 308 316 317 324 311 299 235 209 202 180 176 188 199 219 225 219 220 222 224 228 232 237 245 250 257 262 266 269 272 276 281 284 281 278 277 273 271 268 265 268
339 337 337 336 335 329 297 292 298 319 346 333 316 244 197 182 174 170 195 197 216 217 216 219 219 222 224 229 235 242 247 253 263 271 276 281 287 285 286 289 293 296 294 291 290 281 279
341 339 339 337 337 329 280 273 303 327 352 341 312 214 181 168 172 177 187 202 217 218 218 218 219 222 220 223 228 239 248 258 270 272 281 285 288 293 290 292 300 298 295 289 287 288 288
342 341 340 340 340 332 270 274 302 352 345 338 293 179 177 176 164 181 186 199 211 221 219 217 216 220 223 229 237 241 254 265 270 281 281 283 287 308 306 297 297 293 291 289 288 288 288
344 342 341 341 343 336 264 265 327 336 9 8 184 162 167 176 180 191 190 189 202 218 212 210 213 217 223 229 238 248 252 263 271 272 272 280 291 310 311 302 299 296 294 289 284 283 284
346 344 343 342 347 338 267 229 85 23 33 38 158 158 151 170 176 185 181 182 197 211 202 204 208 212 218 227 238 248 256 257 270 260 273 291 306 312 305 299 297 300 301 295 281 288 287
347 345 344 345 354 354 35 112 80 35 337 123 152 155 164 167 174 179 179 189 201 209 199 196 206 212 220 230 239 241 249 261 262 258 290 306 314 309 307 306 316 322 305 302 302 294 293
350 346 347 349 6 25 75 71 78 38 99 144 137 143 145 167 175 172 175 184 188 199 192 197 205 213 221 226 231 236 255 259 252 268 306 312 314 312 324 337 347 340 335 304 306 291 290
352 348 349 351 14 52 80 86 61 117 148 155 134 133 143 165 177 179 181 188 199 196 193 201 205 215 220 222 230 244 253 249 253 283 299 317 320 338 351 351 354 356 349 350 316 263 246
355 351 352 353 13 18 68 57 109 141 159 154 116 149 164 167 164 169 184 191 182 183 186 195 205 212 211 217 232 244 234 225 248 284 300 318 323 339 347 350 338 346 351 8 83 111 171
357 354 354 359 13 29 63 112 122 128 116 110 118 155 172 176 164 161 173 177 174 168 182 195 206 207 212 220 229 227 214 225 246 271 322 345 346 358 6 15 20 6 270 41 25 303 116
357 357 356 1 24 115 141 141 139 120 105 112 131 158 179 168 160 170 161 159 169 177 182 193 201 209 217 217 220 209 200 202 210 282 15 33 20 18 23 37 39 44 18 321 340 39 147
355 359 357 352 16 177 166 162 175 175 158 123 120 131 162 164 169 168 156 161 167 174 169 184 207 217 236 226 210 192 182 176 199 175 122 65 36 32 26 38 43 53 54 55 52 74 93
353 357 359 347 343 190 190 179 164 181 183 116 123 118 154 170 178 184 173 167 163 162 159 164 215 240 219 201 200 186 173 187 196 190 187 26 11 29 35 36 41 47 68 76 69 79 100
350 354 358 350 256 185 182 182 190 197 185 138 133 147 147 165 171 186 183 177 165 170 171 194 242 256 205 294 181 182 179 193 207 212 226 216 306 7 54 55 42 41 59 62 75 74 68
348 351 353 353 248 198 196 199 201 199 205 199 193 169 184 175 165 169 189 185 173 181 191 224 247 238 206 270 220 191 185 201 215 215 214 225 239 272 18 41 44 74 44 75 116 121 102
346 348 349 350 268 214 210 209 213 212 209 213 215 201 183 178 205 205 197 198 186 193 209 227 276 246 230 255 237 218 193 200 211 218 219 229 238 261 302 349 342 40 137 143 193 176 155
Height
5690 5687 5684 5680 5677 5674 5671 5669 5667 5665 5662 5661 5660 5660 5660 5661 5662 5665 5668 5671 5674 5678 5682 5685 5687 5691 5694 5699 5704 5709 5712 5715 5721 5725 5729 5732 5736 5740 5742 5742 5744 5745 5750 5752 5756 5760 5763
5685 5682 5678 5674 5670 5667 5663 5660 5657 5655 5653 5652 5651 5651 5650 5651 5652 5655 5658 5662 5667 5669 5675 5679 5680 5683 5687 5692 5697 5701 5705 5709 5712 5717 5722 5726 5730 5732 5735 5736 5737 5740 5742 5745 5748 5752 5753
5678 5674 5670 5666 5662 5658 5655 5651 5647 5645 5642 5641 5640 5640 5641 5641 5643 5646 5650 5653 5657 5663 5668 5672 5674 5677 5681 5686 5689 5694 5698 5702 5706 5710 5715 5719 5722 5724 5728 5729 5731 5732 5735 5737 5741 5743 5744
5671 5665 5660 5655 5650 5646 5641 5638 5634 5630 5628 5627 5626 5627 5628 5631 5634 5637 5641 5644 5648 5655 5660 5664 5668 5672 5675 5680 5683 5688 5692 5697 5700 5704 5708 5711 5714 5717 5719 5722 5723 5725 5728 5731 5733 5733 5736
5661 5656 5649 5643 5636 5629 5623 5618 5613 5611 5608 5608 5608 5611 5614 5618 5621 5625 5630 5634 5639 5646 5651 5657 5662 5666 5669 5674 5678 5681 5686 5691 5694 5698 5701 5704 5706 5710 5712 5714 5716 5718 5720 5722 5723 5724 5726
5652 5644 5637 5628 5622 5615 5607 5596 5586 5581 5579 5579 5584 5589 5596 5602 5607 5613 5618 5623 5630 5636 5644 5650 5655 5661 5665 5670 5672 5675 5681 5685 5689 5692 5695 5697 5700 5703 5706 5706 5709 5709 5712 5713 5714 5717 5716
5641 5633 5624 5614 5601 5590 5581 5572 5561 5550 5541 5544 5552 5560 5571 5582 5592 5599 5604 5612 5622 5630 5637 5642 5648 5653 5658 5663 5667 5671 5675 5679 5683 5686 5688 5691 5695 5698 5697 5698 5700 5701 5703 5704 5706 5705 5707
5632 5623 5614 5604 5592 5579 5562 5542 5526 5519 5515 5513 5522 5531 5544 5560 5574 5585 5590 5601 5612 5621 5626 5630 5638 5645 5650 5655 5661 5665 5669 5674 5677 5679 5682 5686 5688 5688 5690 5691 5691 5692 5693 5694 5694 5692 5692
5621 5611 5600 5588 5573 5557 5537 5516 5501 5491 5489 5491 5499 5509 5520 5537 5555 5572 5579 5591 5601 5609 5615 5624 5631 5637 5643 5649 5655 5659 5663 5666 5670 5673 5675 5679 5681 5680 5680 5681 5681 5682 5681 5681 5681 5680 5681
5609 5597 5584 5569 5552 5533 5514 5498 5485 5477 5474 5474 5481 5491 5501 5518 5544 5560 5569 5580 5592 5599 5606 5616 5623 5628 5636 5643 5648 5652 5656 5661 5664 5667 5668 5672 5672 5672 5671 5671 5669 5670 5670 5668 5667 5665 5667
5597 5583 5567 5551 5532 5514 5500 5486 5479 5474 5471 5470 5471 5478 5488 5504 5528 5544 5562 5573 5581 5590 5596 5607 5614 5623 5629 5636 5644 5646 5650 5654 5657 5659 5662 5664 5662 5662 5661 5660 5656 5658 5657 5655 5652 5651 5651
5585 5570 5553 5535 5517 5500 5489 5481 5477 5472 5468 5469 5467 5469 5477 5493 5518 5538 5551 5566 5572 5581 5588 5598 5607 5615 5624 5629 5636 5640 5644 5648 5650 5651 5653 5653 5652 5652 5651 5648 5645 5644 5642 5638 5635 5634 5632
5575 5558 5540 5521 5504 5490 5481 5477 5474 5469 5465 5462 5461 5461 5470 5485 5514 5531 5545 5555 5561 5571 5585 5595 5603 5611 5617 5623 5629 5633 5638 5641 5643 5643 5645 5645 5645 5643 5641 5635 5631 5627 5623 5619 5616 5613 5613
5566 5548 5528 5510 5494 5482 5475 5473 5471 5467 5463 5458 5454 5456 5466 5486 5509 5522 5536 5548 5556 5568 5580 5590 5598 5605 5612 5618 5623 5627 5631 5633 5635 5635 5635 5636 5638 5632 5627 5623 5620 5615 5611 5608 5601 5599 5597
5558 5539 5519 5501 5485 5474 5469 5468 5467 5464 5459 5456 5453 5453 5466 5483 5501 5514 5531 5543 5553 5565 5576 5585 5593 5600 5607 5613 5618 5621 5624 5627 5628 5629 5629 5628 5627 5624 5620 5616 5614 5610 5604 5600 5593 5592 5586
5550 5531 5511 5491 5477 5467 5462 5464 5466 5464 5460 5454 5451 5454 5466 5478 5497 5514 5528 5540 5552 5563 5572 5579 5587 5595 5602 5607 5612 5615 5618 5621 5621 5621 5620 5621 5619 5619 5614 5611 5606 5600 5596 5591 5585 5581 5576
5544 5524 5503 5483 5471 5461 5458 5462 5463 5462 5459 5454 5453 5459 5471 5485 5498 5515 5528 5540 5552 5558 5566 5574 5583 5591 5597 5602 5605 5609 5614 5615 5615 5614 5615 5615 5613 5613 5608 5603 5596 5591 5585 5580 5575 5571 5566
5539 5518 5497 5479 5467 5458 5455 5460 5462 5462 5461 5460 5460 5467 5480 5492 5506 5517 5529 5540 5549 5555 5561 5570 5579 5586 5592 5597 5600 5605 5608 5607 5609 5609 5610 5609 5606 5604 5602 5597 5590 5582 5575 5569 5563 5564 5558
5535 5515 5494 5477 5467 5458 5457 5460 5462 5464 5463 5463 5466 5478 5490 5499 5512 5522 5532 5541 5548 5553 5559 5567 5574 5582 5588 5593 5598 5601 5602 5601 5605 5605 5606 5603 5600 5596 5594 5591 5583 5571 5562 5555 5552 5550 5550
5535 5515 5492 5478 5470 5464 5464 5464 5465 5466 5464 5469 5480 5488 5496 5506 5514 5525 5534 5541 5547 5551 5555 5564 5572 5578 5584 5589 5594 5598 5597 5598 5600 5601 5600 5598 5596 5590 5587 5581 5575 5565 5554 5549 5544 5541 5543
5533 5513 5492 5481 5475 5472 5471 5469 5468 5470 5473 5480 5487 5494 5502 5512 5518 5526 5535 5541 5546 5551 5557 5563 5570 5575 5581 5588 5591 5592 5593 5594 5596 5596 5595 5595 5591 5587 5582 5576 5570 5563 5556 5548 5541 5538 5536
5534 5515 5496 5486 5481 5479 5477 5475 5474 5477 5482 5490 5496 5502 5508 5514 5522 5530 5536 5540 5545 5550 5556 5562 5567 5573 5580 5585 5588 5590 5590 5590 5592 5593 5593 5590 5588 5585 5579 5575 5568 5562 5558 5553 5548 5542 5538
5536 5519 5502 5493 5488 5483 5483 5484 5484 5490 5492 5497 5501 5505 5511 5517 5526 5532 5537 5542 5547 5552 5557 5562 5567 5572 5577 5581 5585 5586 5586 5587 5589 5590 5588 5587 5585 5582 5578 5573 5567 5562 5560 5556 5552 5547 5545
5537 5523 5508 5500 5497 5495 5494 5495 5496 5497 5501 5505 5509 5512 5517 5523 5530 5534 5539 5543 5548 5552 5557 5561 5566 5570 5575 5578 5582 5582 5583 5586 5586 5586 5586 5586 5584 5582 5579 5573 5568 5564 5560 5558 5553 5552 5550
5538 5526 5512 5506 5504 5504 5504 5504 5504 5507 5510 5511 5513 5517 5522 5526 5531 5535 5540 5543 5548 5553 5557 5561 5565 5568 5572 5575 5578 5579 5581 5583 5583 5585 5584 5584 5584 5583 5579 5575 5572 5565 5563 5561 5558 5556 5553
5538 5527 5516 5508 5506 5506 5508 5510 5510 5512 5514 5514 5517 5521 5525 5529 5533 5536 5541 5545 5548 5552 5556 5561 5564 5567 5569 5571 5573 5575 5577 5579 5581 5583 5583 5583 5584 5583 5581 5579 5574 5572 5570 5567 5565 5563 5563
5536 5527 5517 5508 5508 5506 5508 5510 5511 5513 5517 5518 5521 5524 5527 5531 5534 5539 5543 5545 5548 5552 5555 5560 5562 5564 5566 5568 5570 5572 5574 5577 5579 5582 5583 5583 5584 5584 5584 5581 5580 5577 5575 5574 5574 5576 5572
5533 5523 5514 5506 5503 5505 5507 5509 5512 5514 5517 5520 5523 5525 5528 5532 5536 5540 5543 5545 5548 5551 5555 5559 5562 5562 5563 5565 5568 5569 5572 5576 5578 5580 5582 5583 5584 5584 5584 5583 5583 5582 5581 5581 5579 5578 5578
5529 5518 5507 5498 5493 5497 5501 5505 5509 5513 5516 5520 5524 5525 5527 5533 5536 5538 5541 5544 5547 5551 5555 5558 5558 5558 5561 5563 5565 5566 5570 5573 5577 5579 5581 5583 5583 5584 5584 5584 5584 5583 5583 5582 5582 5582 5581